Date,TemperatureHighF,TemperatureAvgF,TemperatureLowF,DewpointHighF,DewpointAvgF,DewpointLowF,HumidityHigh,HumidityAvg,HumidityLow,PressureMaxIn,PressureMinIn,WindSpeedMaxMPH,WindSpeedAvgMPH,GustSpeedMaxMPH,PrecipitationSumIn
2013-5-1,68.5,58.9,48.1,50.6,45.7,41.4,89,64,41,30.44,30.30,6,2,17,0.00
2013-5-2,67.1,56.1,43.8,52.5,48.0,43.2,99,76,56,30.46,30.33,6,2,17,0.00
2013-5-3,65.8,56.1,48.2,49.6,46.2,42.9,94,71,46,30.40,30.32,8,3,17,0.00
2013-5-4,65.3,56.3,48.3,48.3,45.8,43.0,90,70,52,30.36,30.19,7,2,17,0.00
2013-5-5,60.7,52.9,46.0,48.9,44.2,40.1,86,73,58,30.27,30.17,6,3,17,0.00
2013-5-6,61.4,54.9,50.0,58.8,52.7,46.1,99,92,86,30.20,30.07,8,3,17,0.00
2013-5-7,62.6,59.6,57.3,62.4,59.4,57.3,100,100,97,30.08,29.94,7,4,17,0.68
2013-5-8,72.6,61.0,56.3,60.4,57.9,54.7,100,90,60,30.02,29.94,5,1,17,0.03
2013-5-9,74.8,62.2,53.8,67.4,59.1,53.8,100,91,63,30.02,29.94,5,1,17,0.20
2013-5-10,86.0,70.2,54.8,68.1,61.7,54.8,100,78,45,30.03,29.87,4,1,17,0.29
2013-5-11,79.8,67.2,63.2,70.1,65.2,63.1,100,94,64,29.93,29.72,5,1,17,0.51
2013-5-12,64.1,59.3,51.6,63.4,44.3,33.1,100,61,35,30.06,29.76,9,3,19,0.02
2013-5-13,59.0,52.0,43.8,37.5,32.9,29.1,74,50,33,30.18,30.04,9,2,19,0.00
2013-5-14,64.8,52.6,37.4,43.7,37.5,33.9,90,59,37,30.24,30.07,6,1,17,0.00
2013-5-15,87.4,68.6,55.7,67.7,56.4,43.9,77,66,51,30.07,29.69,5,2,17,0.00
2013-5-16,83.9,76.4,67.5,66.4,62.7,57.6,80,63,50,29.93,29.76,9,2,17,0.00
2013-5-17,84.8,73.1,59.9,63.1,57.5,52.1,92,61,37,30.15,29.93,5,1,17,0.00
2013-5-18,69.0,62.6,59.0,60.1,57.9,53.0,98,85,57,30.26,30.15,5,2,17,0.00
2013-5-19,73.9,64.9,59.0,68.4,63.7,58.7,100,96,82,30.23,30.10,5,1,17,0.02
2013-5-20,83.3,72.7,65.6,72.6,68.8,65.5,100,89,69,30.13,29.98,3,1,17,0.00
2013-5-21,84.7,74.9,68.3,74.1,70.5,67.7,100,87,68,30.02,29.89,4,1,17,0.00
2013-5-22,88.5,78.4,69.5,76.4,72.4,66.9,100,83,65,29.94,29.84,4,1,17,0.00
2013-5-23,81.7,73.2,63.5,71.1,68.8,63.2,99,87,68,29.93,29.76,7,1,17,1.27
2013-5-24,63.7,56.4,48.6,63.7,50.7,37.7,100,82,61,30.17,29.75,9,4,20,0.06
2013-5-25,66.7,54.6,44.0,43.2,39.0,35.1,74,57,40,30.21,30.10,8,4,25,0.00
2013-5-26,73.5,60.6,49.4,46.1,41.6,38.3,67,51,34,30.24,30.14,7,2,17,0.00
2013-5-27,72.7,62.2,49.1,53.7,47.8,42.3,86,61,39,30.31,30.19,4,0,17,0.00
2013-5-28,84.8,68.3,58.2,71.8,62.3,52.0,100,82,61,30.22,30.08,4,0,17,0.32
2013-5-29,91.2,78.7,65.9,73.2,69.4,65.6,100,76,50,30.14,30.08,5,1,17,0.01
2013-5-30,93.2,82.1,69.4,74.5,70.1,65.6,89,68,47,30.19,30.11,3,1,17,0.00
2013-5-31,93.0,81.8,68.3,72.0,68.7,65.5,92,66,47,30.16,30.03,6,2,17,0.00